When you browse on this site, cookies collect data to enhance your experience and personalize the content and advertising you see.
Visit our Privacy Policy to learn more. By continuing to use the site, you agree to this use of cookies and data.
  • In Hungary
  • List of Countries
  • For 7 days
  • Water Temperature
  • Weather Map
  • News
  • Weather Widgets
  • user-avatar
    Login

    Hourly Weather Adra

    Today, 16 December, Monday

    Time Temperature Precipitation Wind Pressure Humidity
    00:00 +21°C° 0 mm 2 mps 747 mmHg 81%
    01:00 +21°C° 0.4 mm 2 mps 746 mmHg 81%
    02:00 +22°C° 0.4 mm 1 mps 746 mmHg 81%
    03:00 +22°C° 0.4 mm 1 mps 746 mmHg 82%
    04:00 +22°C° 0.2 mm 1 mps 746 mmHg 82%
    05:00 +21°C° 0.2 mm 1 mps 746 mmHg 82%
    06:00 +21°C° 0.2 mm 1 mps 746 mmHg 83%
    07:00 +22°C° 0.2 mm 1 mps 746 mmHg 81%
    08:00 +22°C° 0.2 mm 1 mps 747 mmHg 80%
    09:00 +22°C° 0.2 mm 1 mps 747 mmHg 78%
    10:00 +24°C° 0 mm 1 mps 747 mmHg 72%
    11:00 +25°C° 0 mm 1 mps 747 mmHg 65%
    12:00 +24°C° 0 mm 0 mps 746 mmHg 58%
    13:00 +27°C° 0.1 mm 1 mps 746 mmHg 57%
    14:00 +27°C° 0.1 mm 1 mps 745 mmHg 55%
    15:00 +27°C° 0.1 mm 2 mps 745 mmHg 53%
    16:00 +27°C° 0.1 mm 2 mps 745 mmHg 55%
    17:00 +26°C° 0.1 mm 2 mps 745 mmHg 57%
    18:00 +26°C° 0.1 mm 2 mps 745 mmHg 59%
    19:00 +25°C° 0 mm 2 mps 746 mmHg 61%
    20:00 +25°C° 0 mm 2 mps 746 mmHg 63%
    21:00 +24°C° 0 mm 2 mps 747 mmHg 65%
    22:00 +24°C° 0 mm 2 mps 747 mmHg 64%
    23:00 +24°C° 0 mm 2 mps 747 mmHg 63%

    Tomorrow, 17 December, Tuesday

    Time Temperature Precipitation Wind Pressure Humidity
    00:00 +24°C° 0 mm 3 mps 747 mmHg 62%
    01:00 +23°C° 0.1 mm 2 mps 747 mmHg 63%
    02:00 +23°C° 0.1 mm 2 mps 747 mmHg 63%
    03:00 +23°C° 0.1 mm 2 mps 747 mmHg 64%
    04:00 +21°C° 0 mm 2 mps 747 mmHg 65%
    05:00 +21°C° 0 mm 2 mps 747 mmHg 66%
    06:00 +20°C° 0 mm 2 mps 747 mmHg 67%
    07:00 +21°C° 0 mm 2 mps 748 mmHg 65%
    08:00 +21°C° 0 mm 2 mps 748 mmHg 62%
    09:00 +22°C° 0 mm 3 mps 749 mmHg 59%
    10:00 +24°C° 0 mm 3 mps 749 mmHg 56%
    11:00 +25°C° 0 mm 3 mps 748 mmHg 53%
    12:00 +26°C° 0 mm 3 mps 748 mmHg 49%
    13:00 +26°C° 0 mm 3 mps 747 mmHg 48%
    14:00 +26°C° 0 mm 3 mps 746 mmHg 47%
    15:00 +27°C° 0 mm 4 mps 746 mmHg 45%
    16:00 +26°C° 0 mm 3 mps 746 mmHg 45%
    17:00 +25°C° 0 mm 3 mps 746 mmHg 45%
    18:00 +24°C° 0 mm 2 mps 746 mmHg 45%
    19:00 +23°C° 0 mm 2 mps 747 mmHg 46%
    20:00 +21°C° 0 mm 2 mps 747 mmHg 47%
    21:00 +21°C° 0 mm 2 mps 748 mmHg 48%
    22:00 +20°C° 0 mm 2 mps 748 mmHg 49%
    23:00 +20°C° 0 mm 2 mps 747 mmHg 50%

    Day after tomorrow, 18 December, Wednesday

    Time Temperature Precipitation Wind Pressure Humidity
    00:00 +19°C° 0 mm 2 mps 747 mmHg 51%
    01:00 +19°C° 0 mm 2 mps 747 mmHg 52%
    02:00 +18°C° 0 mm 3 mps 747 mmHg 53%
    03:00 +18°C° 0 mm 3 mps 747 mmHg 54%
    04:00 +17°C° 0 mm 2 mps 747 mmHg 55%
    05:00 +17°C° 0 mm 2 mps 747 mmHg 56%
    06:00 +16°C° 0 mm 2 mps 747 mmHg 58%
    07:00 +17°C° 0 mm 2 mps 748 mmHg 54%
    08:00 +18°C° 0 mm 2 mps 748 mmHg 50%
    09:00 +19°C° 0 mm 2 mps 749 mmHg 46%
    10:00 +21°C° 0 mm 2 mps 749 mmHg 41%
    11:00 +23°C° 0 mm 2 mps 748 mmHg 35%
    12:00 +24°C° 0 mm 2 mps 748 mmHg 30%
    13:00 +25°C° 0 mm 2 mps 747 mmHg 27%
    14:00 +26°C° 0 mm 3 mps 746 mmHg 25%
    15:00 +26°C° 0 mm 3 mps 746 mmHg 23%
    16:00 +25°C° 0 mm 2 mps 746 mmHg 25%
    17:00 +24°C° 0 mm 2 mps 746 mmHg 27%
    18:00 +21°C° 0 mm 2 mps 746 mmHg 30%
    19:00 +21°C° 0 mm 2 mps 746 mmHg 33%
    20:00 +20°C° 0 mm 2 mps 747 mmHg 37%
    21:00 +19°C° 0 mm 3 mps 747 mmHg 40%
    22:00 +18°C° 0 mm 3 mps 747 mmHg 43%
    23:00 +18°C° 0 mm 2 mps 747 mmHg 45%

    19 December, Thursday

    Time Temperature Precipitation Wind Pressure Humidity
    00:00 +17°C° 0 mm 2 mps 747 mmHg 48%
    01:00 +17°C° 0 mm 2 mps 747 mmHg 49%
    02:00 +17°C° 0 mm 2 mps 746 mmHg 50%
    03:00 +16°C° 0 mm 2 mps 746 mmHg 51%
    04:00 +16°C° 0 mm 2 mps 746 mmHg 52%
    05:00 +15°C° 0 mm 2 mps 746 mmHg 53%
    06:00 +15°C° 0 mm 2 mps 746 mmHg 54%
    07:00 +16°C° 0 mm 2 mps 746 mmHg 50%
    08:00 +18°C° 0 mm 2 mps 747 mmHg 47%
    09:00 +19°C° 0 mm 2 mps 747 mmHg 44%
    10:00 +20°C° 0 mm 2 mps 747 mmHg 39%
    11:00 +22°C° 0 mm 3 mps 747 mmHg 35%
    12:00 +24°C° 0 mm 3 mps 746 mmHg 30%
    13:00 +25°C° 0 mm 3 mps 745 mmHg 28%
    14:00 +25°C° 0 mm 3 mps 745 mmHg 26%
    15:00 +26°C° 0 mm 3 mps 744 mmHg 24%
    16:00 +25°C° 0 mm 3 mps 744 mmHg 26%
    17:00 +22°C° 0 mm 3 mps 744 mmHg 29%
    18:00 +21°C° 0 mm 2 mps 744 mmHg 32%
    19:00 +20°C° 0 mm 2 mps 745 mmHg 34%
    20:00 +19°C° 0 mm 2 mps 745 mmHg 37%
    21:00 +19°C° 0 mm 2 mps 745 mmHg 39%
    22:00 +18°C° 0 mm 2 mps 745 mmHg 41%
    23:00 +18°C° 0 mm 2 mps 745 mmHg 43%

    20 December, Friday

    Time Temperature Precipitation Wind Pressure Humidity
    00:00 +17°C° 0 mm 2 mps 745 mmHg 45%
    01:00 +17°C° 0 mm 2 mps 745 mmHg 46%
    02:00 +16°C° 0 mm 2 mps 744 mmHg 48%
    03:00 +16°C° 0 mm 1 mps 744 mmHg 49%
    04:00 +15°C° 0 mm 2 mps 744 mmHg 50%
    05:00 +15°C° 0 mm 2 mps 744 mmHg 51%
    06:00 +15°C° 0 mm 2 mps 744 mmHg 52%
    07:00 +16°C° 0 mm 2 mps 745 mmHg 49%
    08:00 +17°C° 0 mm 2 mps 746 mmHg 46%
    09:00 +19°C° 0 mm 2 mps 746 mmHg 43%
    10:00 +20°C° 0 mm 2 mps 746 mmHg 38%
    11:00 +23°C° 0 mm 2 mps 745 mmHg 34%
    12:00 +24°C° 0 mm 2 mps 745 mmHg 30%
    13:00 +25°C° 0 mm 2 mps 744 mmHg 27%
    14:00 +26°C° 0 mm 2 mps 744 mmHg 25%
    15:00 +26°C° 0 mm 3 mps 743 mmHg 23%
    16:00 +25°C° 0 mm 2 mps 743 mmHg 25%
    17:00 +24°C° 0 mm 2 mps 743 mmHg 28%
    18:00 +23°C° 0 mm 1 mps 744 mmHg 30%
    19:00 +22°C° 0 mm 1 mps 744 mmHg 32%
    20:00 +21°C° 0 mm 1 mps 744 mmHg 34%
    21:00 +20°C° 0 mm 2 mps 745 mmHg 37%
    22:00 +19°C° 0 mm 2 mps 744 mmHg 39%
    23:00 +19°C° 0 mm 1 mps 744 mmHg 41%

    21 December, Saturday

    Time Temperature Precipitation Wind Pressure Humidity
    00:00 +19°C° 0 mm 1 mps 744 mmHg 43%
    01:00 +18°C° 0 mm 1 mps 744 mmHg 45%
    02:00 +18°C° 0 mm 1 mps 744 mmHg 46%
    03:00 +18°C° 0 mm 1 mps 744 mmHg 48%
    04:00 +16°C° 0 mm 1 mps 744 mmHg 49%
    05:00 +16°C° 0 mm 1 mps 744 mmHg 49%
    06:00 +16°C° 0 mm 1 mps 744 mmHg 50%
    07:00 +18°C° 0 mm 1 mps 744 mmHg 47%
    08:00 +19°C° 0 mm 1 mps 745 mmHg 44%
    09:00 +21°C° 0 mm 1 mps 746 mmHg 40%
    10:00 +22°C° 0 mm 1 mps 745 mmHg 36%
    11:00 +24°C° 0 mm 1 mps 745 mmHg 33%
    12:00 +26°C° 0 mm 1 mps 745 mmHg 29%
    13:00 +26°C° 0 mm 1 mps 744 mmHg 27%
    14:00 +27°C° 0 mm 1 mps 744 mmHg 26%
    15:00 +27°C° 0 mm 2 mps 743 mmHg 25%
    16:00 +26°C° 0 mm 1 mps 743 mmHg 27%
    17:00 +25°C° 0 mm 1 mps 743 mmHg 29%
    18:00 +22°C° 0 mm 0 mps 743 mmHg 31%
    19:00 +22°C° 0 mm 0 mps 744 mmHg 33%
    20:00 +21°C° 0 mm 0 mps 744 mmHg 34%
    21:00 +21°C° 0 mm 0 mps 745 mmHg 35%
    22:00 +22°C° 0 mm 1 mps 745 mmHg 36%
    23:00 +22°C° 0 mm 1 mps 745 mmHg 38%
    Show more